Wind_Speed
8 7 6 4 3 7 12 8 8 5 5 15 16 12 9 13 8 8 12 13 17 18 23 24 22 28 27 25 24 24 22 22 21 19 18 17 17 17 17 17 18 17 16 16 17 16 16 15 14
13 11 7 5 6 14 12 9 9 8 14 18 19 20 17 13 22 24 25 19 15 17 17 24 26 25 26 26 25 26 24 24 23 22 20 20 19 18 18 18 17 17 17 17 17 16 15 16 15
9 7 3 3 7 11 9 10 9 19 19 19 17 20 20 16 32 29 30 29 28 24 22 19 26 28 27 26 26 26 26 26 25 24 23 22 21 20 20 20 19 19 19 19 18 17 17 16 15
7 6 5 8 12 10 14 14 19 18 17 24 25 20 22 23 32 32 31 32 32 30 31 26 23 25 28 28 26 27 28 28 28 27 27 25 24 22 21 21 22 21 21 21 20 18 18 17 15
5 3 6 7 10 11 16 17 18 18 20 21 25 25 18 34 33 33 32 30 31 35 36 36 32 27 25 29 28 28 30 33 31 30 31 29 28 25 24 23 23 23 23 23 21 18 18 17 16
3 2 5 9 6 17 19 21 20 22 22 23 25 29 26 37 38 35 35 37 38 37 37 39 40 37 32 28 30 32 30 31 35 34 33 33 31 28 26 26 26 24 25 24 22 21 18 19 16
3 4 8 12 11 12 20 21 22 23 24 23 31 30 22 28 38 36 36 37 37 40 40 41 41 41 39 36 33 33 33 33 33 36 36 35 34 32 30 29 28 27 27 26 24 22 21 20 18
3 5 9 8 8 11 23 22 24 24 26 30 32 21 21 39 38 35 33 37 39 41 40 42 43 41 42 41 40 37 36 37 36 36 37 36 35 34 33 32 31 30 29 27 27 24 23 22 20
5 5 7 10 12 10 25 25 27 31 32 33 36 40 42 50 46 46 44 41 42 42 42 40 43 46 43 43 43 43 41 40 39 38 39 38 37 35 35 35 34 33 31 30 28 27 26 25 22
6 7 8 15 18 22 25 28 32 36 35 37 38 38 44 47 47 50 50 48 45 45 43 44 43 44 46 46 45 43 45 45 44 43 41 39 39 38 37 36 34 34 34 35 31 30 29 28 24
7 9 15 21 22 24 27 32 33 37 39 33 40 37 39 40 40 43 45 47 47 47 48 46 45 44 46 46 47 47 45 47 47 47 45 44 40 40 39 36 35 34 35 35 40 40 33 29 27
11 13 19 21 24 26 30 34 36 34 34 34 31 33 32 33 35 36 38 39 40 42 45 49 48 47 47 48 46 46 47 48 48 46 47 46 45 40 39 38 35 36 34 36 34 39 37 32 28
10 19 19 23 22 28 33 32 31 32 23 29 30 30 30 30 32 37 40 40 42 42 41 44 49 51 50 51 48 45 45 47 48 50 47 44 43 40 39 36 40 33 40 38 23 32 33 29 28
17 18 22 19 19 32 32 32 25 23 27 27 30 30 30 32 33 34 37 41 42 43 42 41 45 49 53 53 53 48 45 43 44 48 49 50 40 38 35 35 27 49 19 23 29 30 28 31 26
18 20 19 23 30 29 34 29 19 17 25 27 29 29 30 31 33 36 39 42 44 45 45 45 42 46 51 55 56 53 47 44 49 42 46 47 41 37 30 32 26 19 19 18 15 22 20 25 33
12 11 14 16 31 31 31 27 12 28 27 30 31 27 29 29 29 33 36 37 39 40 42 44 44 43 45 53 56 58 54 44 42 46 46 45 43 40 37 29 26 25 23 23 22 19 18 23 30
12 13 17 16 32 33 26 29 28 29 27 25 26 27 29 27 29 33 33 33 34 35 35 38 39 39 41 43 49 55 56 52 46 43 46 47 46 46 40 22 22 22 23 23 24 25 23 24 25
13 17 19 21 18 29 32 38 31 23 25 28 26 27 26 28 33 35 32 30 31 32 34 33 38 37 38 38 40 41 50 52 42 43 35 31 50 36 27 21 21 23 26 25 25 28 27 23 18
20 23 26 23 27 33 28 39 30 24 25 24 24 25 25 31 37 34 31 30 28 28 30 29 31 33 37 36 34 36 43 41 43 38 42 30 27 39 39 36 23 28 28 27 27 28 28 28 28
21 23 24 23 21 38 32 33 29 24 21 20 21 21 25 32 33 31 29 28 27 25 26 24 27 30 37 35 31 32 36 41 43 39 33 34 32 26 27 40 27 28 26 27 27 27 29 34 28
20 21 25 31 35 25 19 21 10 14 15 18 19 21 25 35 30 27 26 23 23 23 24 23 21 26 31 36 32 31 33 31 32 34 35 34 35 32 30 30 33 29 28 28 28 29 30 34 34
23 22 30 33 26 7 12 8 12 14 14 18 18 22 27 32 29 26 23 20 20 20 20 21 19 24 30 36 35 32 32 33 36 36 36 36 32 35 33 31 30 30 29 29 29 32 32 35 27
19 25 30 28 10 13 4 4 7 14 16 16 21 27 29 33 26 22 20 18 17 16 17 18 18 21 25 27 37 31 32 31 33 35 36 38 35 36 35 38 34 32 30 31 27 30 34 34 36
18 25 20 13 5 4 8 2 9 8 13 19 29 33 34 27 21 20 18 15 14 14 16 18 20 19 20 26 30 30 29 28 31 35 39 42 41 42 41 40 37 33 32 31 31 33 35 35 33
16 18 6 3 2 3 4 8 13 15 18 25 28 33 27 15 16 17 15 14 14 14 15 15 13 13 14 17 26 27 26 26 28 33 39 39 38 38 38 36 36 33 33 31 32 32 34 38 34
11 8 2 7 6 11 12 7 7 17 27 31 35 27 13 12 15 16 16 14 12 11 14 12 9 10 11 15 20 24 25 25 27 31 34 34 34 36 36 35 34 34 33 31 31 32 35 32 38
8 2 6 5 7 5 7 7 17 11 33 36 33 21 12 12 14 15 15 13 12 12 12 10 7 5 10 16 22 24 25 24 24 26 30 29 31 34 34 35 35 35 32 31 27 35 32 33 32
9 6 5 1 5 7 7 10 12 22 36 39 30 16 10 9 11 12 13 11 11 10 10 8 5 5 11 16 19 21 22 20 20 22 22 23 25 30 32 32 32 32 27 29 32 33 36 34 36
9 6 3 3 3 4 7 8 18 28 42 38 27 13 7 7 8 9 11 10 9 8 8 6 2 5 9 13 17 17 16 15 16 14 15 17 20 22 24 25 26 24 27 25 23 36 34 34 40
13 12 8 3 4 6 5 13 21 35 41 34 21 9 6 7 6 9 11 12 9 7 6 4 3 7 12 15 17 18 17 15 14 14 12 12 13 15 16 20 17 20 22 20 30 32 30 33 44
Wind_Direction
301 301 298 293 246 240 263 260 243 274 309 271 278 277 251 250 229 250 241 256 251 245 239 231 235 234 235 235 236 236 239 237 233 235 231 224 218 211 207 206 210 216 215 216 219 230 242 249 249
292 289 284 244 235 246 279 257 276 273 258 280 279 282 284 282 257 254 254 255 256 256 242 236 233 233 237 238 238 235 238 237 233 234 230 225 221 216 213 210 215 216 224 224 227 229 236 250 255
301 295 289 216 244 248 273 255 262 279 279 278 273 270 256 240 262 261 264 260 257 250 246 239 235 236 237 236 237 233 234 235 233 234 234 227 223 221 217 217 214 218 225 228 229 233 245 245 255
294 287 266 237 247 268 259 272 275 279 282 283 281 285 272 269 264 267 265 263 260 256 248 249 246 238 240 242 238 238 233 232 229 230 230 228 225 224 219 222 221 221 227 231 236 239 244 247 251
293 274 231 255 262 247 263 274 282 284 284 282 283 283 264 279 270 272 271 267 266 262 253 252 251 249 243 241 238 238 237 233 231 228 227 227 227 225 226 224 225 226 228 231 236 241 246 248 252
287 276 246 275 287 282 300 298 298 294 287 277 276 277 281 271 279 279 272 266 262 259 259 251 252 253 251 244 240 236 233 234 232 231 226 225 225 226 225 223 225 231 232 236 239 240 248 250 250
273 273 264 283 292 285 287 300 294 290 288 286 286 287 274 279 275 274 274 271 264 258 255 255 251 252 250 248 243 240 235 236 233 228 228 226 226 225 225 226 226 230 234 237 241 242 246 250 249
292 280 278 284 292 283 291 295 292 288 283 280 281 279 265 263 275 274 273 272 267 263 255 250 250 250 251 249 243 241 239 236 234 230 227 226 229 231 231 225 226 228 231 237 242 245 246 248 246
322 267 271 271 289 275 293 292 293 291 286 283 281 279 278 274 275 273 271 268 265 266 260 253 246 245 247 249 245 238 237 238 236 233 227 226 227 228 233 235 230 230 230 231 237 239 243 245 241
313 291 262 283 287 292 292 291 290 288 288 285 282 277 274 282 280 277 274 269 265 264 261 259 252 243 242 243 244 243 235 236 235 236 233 228 228 230 231 233 236 233 231 230 236 238 241 242 238
306 283 297 299 299 295 293 296 294 293 286 288 279 282 279 280 279 278 277 275 271 262 259 256 253 250 242 239 240 239 243 234 236 235 237 233 229 230 231 231 233 235 234 236 231 239 237 241 235
309 307 307 302 303 301 304 299 296 285 287 285 281 282 280 278 277 274 273 273 270 266 262 254 250 245 244 241 238 239 237 240 237 238 234 236 231 228 230 231 232 237 239 242 233 229 231 235 232
304 315 309 304 303 309 304 303 297 289 285 296 290 288 285 282 280 279 278 275 270 265 261 256 252 244 240 241 239 234 235 237 240 238 238 237 236 231 231 231 231 240 236 236 215 222 223 227 228
318 310 308 301 308 315 308 314 294 299 296 297 296 293 293 296 293 288 281 277 275 273 270 263 252 247 239 237 239 237 231 237 237 236 238 241 223 227 227 230 242 234 233 274 246 247 237 229 224
314 316 317 320 321 313 319 329 319 285 302 297 292 292 292 294 292 288 284 283 281 277 274 270 263 248 242 236 235 237 235 231 233 229 229 228 216 214 220 228 230 238 251 261 270 282 302 231 233
312 323 329 317 319 319 318 308 307 289 293 295 289 290 293 298 297 294 292 287 285 280 274 269 264 257 245 239 234 233 237 234 233 233 225 218 215 209 210 225 238 237 244 257 268 269 266 285 257
319 310 310 316 317 315 311 300 301 298 296 292 287 290 298 296 297 302 300 294 290 285 281 269 259 256 247 241 237 235 234 236 236 231 235 225 217 219 216 216 242 246 252 258 267 267 261 265 278
292 307 306 308 310 296 291 297 300 287 274 290 285 292 295 296 301 305 300 294 290 285 280 270 262 255 242 241 236 230 234 237 239 243 232 244 231 204 211 231 253 251 252 264 265 266 253 246 246
307 309 309 310 297 309 305 303 297 284 276 286 288 294 298 302 304 302 298 296 294 292 283 276 261 248 236 235 231 228 222 217 230 240 239 237 242 251 239 232 255 258 262 262 262 255 239 227 237
311 309 311 306 317 307 308 302 300 279 275 278 288 292 301 311 306 300 298 298 302 297 294 288 262 240 233 227 224 227 220 224 225 231 233 232 239 235 234 248 255 255 252 252 251 241 236 226 235
311 306 314 306 313 322 307 310 282 277 275 281 283 294 306 319 311 302 302 298 300 299 299 293 265 236 240 224 222 223 217 209 212 217 225 227 232 235 232 234 240 247 244 241 240 230 233 233 233
310 315 319 313 316 305 318 296 304 280 275 286 280 300 312 323 312 307 306 301 303 298 294 292 271 245 244 232 219 218 219 212 208 214 232 240 236 235 235 236 231 240 237 239 235 230 224 216 231
308 317 319 310 307 310 192 265 270 277 288 284 285 303 308 323 313 312 309 309 305 302 292 290 280 257 250 233 215 215 221 218 215 215 229 240 233 235 235 239 233 234 232 236 226 225 229 222 235
311 327 318 315 320 271 189 231 282 259 300 294 302 301 306 313 316 318 316 322 315 311 298 288 280 269 252 232 218 214 221 220 218 218 220 225 224 225 226 223 222 222 228 231 226 221 221 228 230
324 349 316 280 233 306 197 269 267 302 310 315 307 304 306 316 324 327 324 327 323 313 309 308 297 270 245 232 217 211 218 221 221 222 222 223 221 223 223 220 219 221 227 228 226 223 222 235 230
316 25 39 299 313 308 277 247 268 310 326 335 329 324 323 332 335 334 332 337 338 332 317 308 299 280 240 224 223 213 220 224 225 225 225 226 222 221 219 219 222 225 230 226 223 217 224 227 238
319 347 337 256 277 282 241 284 293 300 341 341 338 328 333 337 337 338 335 342 347 346 339 316 302 249 228 213 215 216 220 223 226 225 226 224 221 220 218 220 222 226 232 223 214 232 225 230 233
294 312 327 25 310 302 304 301 270 322 338 344 341 333 328 332 334 335 332 327 332 341 348 346 311 208 202 207 208 213 218 221 222 223 224 223 219 217 217 222 225 231 230 232 225 225 233 235 233
284 282 273 283 208 298 311 313 311 331 339 342 343 340 308 309 309 315 305 306 323 334 344 344 320 193 184 185 188 189 192 198 207 211 213 211 210 212 218 226 230 235 230 228 230 249 236 237 228
274 271 267 226 176 244 264 277 321 334 338 343 346 342 277 270 294 303 308 311 326 339 344 317 228 180 168 159 156 154 157 156 160 165 171 183 196 208 218 229 235 234 236 240 250 239 255 243 242
Height
3096 3097 3098 3100 3107 3102 3100 3101 3099 3099 3099 3096 3097 3099 3101 3100 3102 3104 3096 3096 3096 3097 3098 3099 3099 3100 3102 3104 3107 3108 3109 3111 3112 3114 3115 3115 3117 3119 3120 3121 3123 3125 3127 3128 3130 3132 3133 3134 3134
3095 3095 3096 3098 3101 3099 3097 3097 3097 3097 3093 3093 3094 3095 3097 3098 3094 3094 3094 3095 3094 3094 3095 3096 3096 3097 3098 3100 3102 3105 3107 3108 3109 3110 3112 3114 3115 3117 3119 3120 3122 3123 3125 3127 3128 3129 3131 3132 3133
3091 3092 3095 3096 3096 3096 3096 3094 3094 3091 3091 3090 3091 3092 3092 3092 3086 3087 3089 3090 3091 3091 3091 3092 3093 3094 3094 3096 3098 3101 3102 3104 3106 3108 3110 3111 3113 3115 3117 3119 3120 3122 3124 3125 3126 3128 3129 3129 3131
3089 3091 3093 3092 3093 3094 3092 3091 3089 3089 3089 3086 3086 3087 3084 3086 3083 3083 3084 3085 3086 3087 3087 3088 3089 3090 3091 3092 3094 3095 3098 3100 3102 3104 3106 3108 3110 3111 3114 3116 3118 3120 3121 3123 3124 3126 3127 3128 3128
3088 3088 3091 3089 3090 3090 3088 3088 3087 3087 3085 3084 3081 3082 3085 3075 3078 3079 3080 3081 3081 3081 3082 3083 3084 3086 3087 3088 3090 3091 3094 3096 3098 3100 3102 3104 3106 3108 3110 3112 3115 3117 3118 3120 3121 3123 3124 3125 3126
3085 3087 3089 3089 3088 3084 3083 3082 3082 3081 3080 3078 3077 3076 3077 3068 3069 3072 3072 3073 3074 3075 3075 3077 3078 3079 3081 3083 3084 3086 3087 3090 3093 3095 3098 3100 3101 3103 3106 3108 3111 3113 3115 3117 3118 3120 3122 3123 3124
3085 3086 3087 3085 3084 3082 3079 3079 3078 3077 3077 3074 3070 3070 3073 3065 3063 3063 3063 3063 3064 3064 3068 3069 3071 3072 3074 3076 3078 3080 3082 3084 3087 3090 3093 3095 3097 3099 3101 3103 3107 3109 3111 3113 3115 3117 3118 3120 3121
3083 3083 3082 3082 3082 3081 3076 3075 3073 3073 3072 3069 3067 3066 3063 3054 3054 3057 3056 3056 3055 3055 3057 3060 3063 3065 3067 3069 3071 3074 3076 3077 3080 3084 3086 3089 3093 3095 3097 3098 3101 3104 3107 3109 3111 3113 3115 3117 3119
3080 3081 3080 3079 3077 3076 3072 3071 3069 3066 3066 3064 3061 3058 3054 3048 3051 3049 3049 3049 3047 3047 3047 3050 3052 3056 3059 3060 3063 3066 3069 3072 3074 3076 3079 3083 3086 3089 3093 3095 3097 3099 3101 3104 3105 3107 3110 3112 3114
3078 3077 3076 3074 3072 3071 3068 3065 3063 3060 3058 3056 3055 3053 3045 3042 3040 3038 3038 3040 3040 3039 3039 3040 3042 3045 3048 3052 3054 3057 3060 3064 3067 3070 3073 3076 3080 3084 3086 3090 3093 3094 3096 3096 3099 3101 3105 3107 3110
3074 3073 3071 3068 3066 3064 3062 3059 3056 3052 3047 3047 3042 3042 3039 3036 3033 3030 3028 3027 3029 3030 3031 3030 3033 3035 3038 3041 3044 3048 3052 3055 3058 3063 3066 3070 3073 3077 3080 3083 3086 3088 3091 3091 3093 3095 3098 3103 3106
3071 3069 3066 3063 3060 3058 3055 3050 3046 3042 3040 3035 3033 3031 3030 3028 3024 3022 3019 3018 3017 3018 3019 3020 3022 3025 3029 3030 3034 3038 3043 3046 3050 3054 3058 3062 3066 3070 3074 3076 3080 3083 3085 3087 3079 3087 3093 3099 3102
3067 3065 3062 3059 3055 3051 3046 3043 3037 3031 3029 3024 3023 3021 3020 3020 3019 3015 3012 3010 3007 3007 3008 3008 3009 3013 3017 3021 3024 3028 3033 3037 3042 3046 3050 3055 3059 3063 3066 3070 3074 3074 3079 3080 3076 3076 3084 3092 3096
3063 3060 3057 3053 3049 3044 3039 3034 3027 3026 3021 3019 3015 3014 3012 3010 3009 3008 3005 3002 3000 2997 2996 2997 2998 3000 3004 3009 3015 3019 3022 3027 3033 3038 3042 3047 3050 3055 3059 3062 3063 3068 3067 3072 3076 3081 3081 3084 3090
3058 3056 3051 3045 3043 3040 3031 3025 3020 3019 3018 3015 3011 3008 3006 3004 3002 2999 2996 2993 2991 2988 2986 2985 2986 2987 2991 2996 3003 3009 3013 3018 3024 3028 3034 3038 3042 3047 3052 3057 3060 3063 3066 3072 3074 3076 3079 3082 3084
3054 3051 3051 3046 3037 3033 3029 3021 3022 3014 3013 3009 3005 3002 3001 2997 2995 2992 2988 2985 2980 2977 2975 2975 2974 2976 2979 2982 2989 2996 3003 3008 3014 3020 3024 3030 3033 3038 3042 3050 3055 3058 3062 3066 3070 3072 3075 3078 3081
3050 3049 3046 3042 3031 3028 3025 3016 3015 3009 3006 3003 3000 2997 2994 2992 2989 2985 2980 2976 2971 2967 2965 2965 2965 2966 2968 2973 2979 2986 2992 2998 3005 3010 3015 3020 3025 3029 3033 3039 3050 3053 3057 3059 3063 3067 3070 3072 3075
3050 3044 3040 3037 3033 3025 3020 3010 3009 3006 3001 2997 2994 2992 2989 2987 2983 2977 2973 2968 2964 2959 2957 2956 2956 2958 2960 2964 2970 2977 2982 2989 2997 3001 3008 3012 3018 3021 3028 3036 3042 3046 3050 3053 3057 3060 3065 3067 3071
3044 3040 3034 3032 3025 3017 3011 3004 3002 3000 2996 2992 2990 2987 2985 2982 2976 2969 2964 2960 2956 2951 2949 2947 2947 2949 2953 2958 2962 2968 2972 2980 2988 2995 2999 3006 3011 3016 3022 3027 3034 3040 3042 3047 3051 3054 3057 3062 3063
3039 3035 3031 3025 3018 3014 3004 2997 2995 2993 2991 2989 2986 2983 2979 2975 2970 2964 2958 2952 2948 2945 2942 2939 2939 2942 2946 2952 2956 2962 2967 2973 2980 2989 2995 2999 3006 3011 3015 3022 3031 3033 3036 3039 3042 3046 3049 3054 3056
3036 3032 3026 3021 3011 3005 3000 2992 2990 2989 2987 2985 2982 2978 2974 2968 2962 2958 2952 2947 2943 2940 2937 2935 2934 2936 2940 2945 2950 2956 2962 2967 2974 2981 2987 2992 3000 3006 3010 3015 3021 3027 3030 3033 3034 3040 3043 3047 3049
3031 3027 3021 3013 3009 3008 3001 2997 2990 2985 2984 2981 2977 2973 2969 2962 2957 2952 2947 2943 2938 2936 2933 2932 2931 2933 2935 2938 2944 2949 2956 2960 2964 2971 2979 2986 2994 2999 3004 3009 3014 3021 3022 3024 3028 3032 3036 3039 3042
3029 3022 3016 3007 3004 3003 3001 3001 2986 2985 2982 2978 2973 2968 2963 2958 2953 2948 2943 2938 2934 2932 2930 2929 2927 2927 2928 2931 2937 2943 2949 2955 2959 2966 2974 2979 2986 2990 2997 3003 3006 3011 3014 3017 3021 3027 3031 3033 3036
3024 3019 3010 3004 3003 3003 2998 2998 2986 2983 2981 2976 2970 2964 2959 2954 2950 2944 2940 2935 2930 2928 2926 2925 2923 2923 2924 2926 2931 2938 2944 2950 2954 2960 2966 2973 2978 2983 2988 2994 2999 3003 3007 3012 3015 3018 3024 3028 3031
3023 3019 3012 3005 3000 2995 2997 2995 2982 2980 2978 2973 2966 2959 2953 2949 2946 2942 2937 2932 2927 2925 2923 2921 2919 2918 2920 2922 2927 2934 2940 2945 2950 2954 2959 2965 2971 2977 2982 2987 2992 2997 3002 3005 3010 3013 3018 3020 3025
3021 3020 3020 3015 3001 2996 2994 2989 2980 2977 2973 2966 2957 2950 2947 2945 2942 2939 2935 2930 2926 2922 2919 2917 2916 2915 2917 2920 2925 2931 2937 2941 2945 2950 2956 2961 2966 2972 2977 2983 2987 2991 2996 2999 3003 3006 3010 3017 3016
3019 3019 3018 3015 3011 3008 2988 2984 2978 2974 2968 2961 2953 2947 2944 2942 2940 2938 2934 2929 2924 2920 2917 2915 2914 2914 2915 2920 2924 2929 2934 2938 2941 2947 2952 2958 2963 2967 2973 2978 2982 2987 2991 2994 2998 3001 3003 3009 3013
3018 3017 3014 3014 3008 2998 2983 2981 2976 2971 2965 2958 2950 2945 2943 2940 2938 2935 2931 2926 2921 2919 2916 2914 2913 2913 2915 2919 2923 2927 2931 2935 2940 2944 2949 2954 2959 2964 2969 2974 2976 2981 2986 2989 2992 2993 2998 3000 3004
3015 3013 3012 3012 3012 3007 2993 2978 2972 2969 2962 2954 2948 2943 2941 2938 2934 2931 2926 2923 2922 2919 2916 2914 2913 2914 2915 2917 2921 2924 2928 2933 2938 2942 2946 2951 2956 2960 2965 2969 2972 2977 2979 2981 2986 2988 2994 2997 3001
3012 3010 3009 3009 3009 3008 3005 2981 2971 2967 2960 2953 2946 2942 2938 2935 2933 2929 2926 2923 2923 2920 2918 2916 2915 2915 2916 2919 2921 2925 2928 2932 2936 2941 2944 2949 2953 2958 2962 2966 2969 2972 2976 2978 2981 2987 2988 2990 2990